Overview Statistics Trail Chart Weather Telemetry Raw packets
 

This is the latest recevied weather packets stored in our database for station/object VU3OPZ-13. If no packets are shown the sender has not sent any weather packets the latest 10 day(s).

<< 1 2 3 4 5 >>
Time Temp. Humidity Pressure Rain* Wind** Luminosity Snow
1788362468 22.78° C 83% 1012 hPa 0 mm - - -
1788360664 23.33° C 83% 1012 hPa 0 mm - - -
1788358859 23.33° C 80% 1012 hPa 0 mm - - -
1788357054 23.33° C 80% 1012 hPa 0 mm - - -
1788355250 24.44° C 73% 1011 hPa 0 mm - - -
1788353446 24.44° C 73% 1011 hPa 0 mm - - -
1788351642 26.11° C 66% 1010 hPa 0 mm - - -
1788349837 26.11° C 66% 1010 hPa 0 mm - - -
1788346227 27.22° C 59% 1010 hPa 0 mm - - -
1788344423 27.78° C 58% 1009 hPa 0 mm - - -
1788342619 27.78° C 57% 1009 hPa 0 mm - - -
1788340815 27.78° C 58% 1010 hPa 0 mm - - -
1788339010 28.33° C 58% 1010 hPa 0 mm - - -
1788336713 27.78° C 61% 1011 hPa 0 mm - - -
1788334909 27.78° C 61% 1011 hPa 0 mm - - -
1788333104 27.22° C 63% 1012 hPa 0 mm - - -
1788331300 27.22° C 62% 1012 hPa 0 mm - - -
1788329495 27.22° C 62% 1012 hPa 0 mm - - -
1788327691 27.22° C 61% 1012 hPa 0 mm - - -
1788324376 27.22° C 63% 1013 hPa 0 mm - - -
1788322572 25.56° C 70% 1013 hPa 0 mm - - -
1788320767 25.56° C 69% 1013 hPa 0 mm - - -
1788318963 23.89° C 78% 1013 hPa 0 mm - - -
1788317158 23.89° C 78% 1013 hPa 0 mm - - -
1788315354 22.22° C 89% 1013 hPa 0 mm - - -

* Rain latest hour (hover to see other rain measurements)
** Current wind speed in m/s (hover to see current wind gust speed)